Fuaamotu International Airport


Codes: NFTF/TBU
Name: Fuaamotu International Airport
City: Nukualofa
Country: Tonga
Elevation: 126 ft.
Wikipedia:

Photos at Fuaamotu International Airport


   Photos courtesy of SpottingLog. You can add your own sightings and photos by signing up for a free trial today.



No photos found.

Weather at Fuaamotu International Airport


Time (UTC)DescriptionTempratureWindCloud coverageVisibilityPressureHumidity
16-Jun-2024 00:00Light Rain28°C11 mph, E20%10000m1018hPa83%
16-Jun-2024 03:00Scattered Clouds27°C13 mph, E44%10000m1017hPa82%
16-Jun-2024 06:00Broken Clouds26°C13 mph, E69%10000m1017hPa85%
16-Jun-2024 09:00Overcast Clouds25°C16 mph, E96%10000m1018hPa86%
16-Jun-2024 12:00Overcast Clouds25°C16 mph, E98%10000m1017hPa86%
16-Jun-2024 15:00Overcast Clouds25°C16 mph, E100%10000m1016hPa85%
16-Jun-2024 18:00Overcast Clouds25°C16 mph, E99%10000m1017hPa85%
16-Jun-2024 21:00Overcast Clouds25°C16 mph, E98%10000m1018hPa84%
17-Jun-2024 00:00Overcast Clouds25°C16 mph, NE99%10000m1017hPa82%
17-Jun-2024 03:00Overcast Clouds25°C9 mph, E100%10000m1016hPa81%
17-Jun-2024 06:00Overcast Clouds25°C13 mph, SE100%10000m1017hPa84%
17-Jun-2024 09:00Light Rain25°C16 mph, E100%10000m1018hPa84%
17-Jun-2024 12:00Light Rain24°C13 mph, NE100%10000m1018hPa86%
17-Jun-2024 15:00Light Rain24°C22 mph, E100%10000m1015hPa85%
17-Jun-2024 18:00Overcast Clouds25°C18 mph, NE99%10000m1015hPa87%
17-Jun-2024 21:00Broken Clouds25°C18 mph, NE74%10000m1016hPa88%
18-Jun-2024 00:00Broken Clouds25°C13 mph, NE69%10000m1015hPa88%
18-Jun-2024 03:00Light Rain25°C13 mph, NE73%10000m1014hPa88%
18-Jun-2024 06:00Light Rain25°C13 mph, NE53%10000m1014hPa88%
18-Jun-2024 09:00Light Rain25°C13 mph, NE54%10000m1015hPa87%
18-Jun-2024 12:00Light Rain25°C13 mph, NE76%10000m1015hPa88%
18-Jun-2024 15:00Light Rain25°C13 mph, NE100%10000m1013hPa87%
18-Jun-2024 18:00Light Rain25°C13 mph, NE91%10000m1013hPa87%
18-Jun-2024 21:00Overcast Clouds25°C11 mph, NE92%10000m1015hPa87%
19-Jun-2024 00:00Overcast Clouds25°C11 mph, N92%10000m1013hPa87%
19-Jun-2024 03:00Overcast Clouds25°C13 mph, N100%10000m1012hPa87%
19-Jun-2024 06:00Broken Clouds25°C11 mph, N58%10000m1012hPa89%
19-Jun-2024 09:00Clear Sky25°C9 mph, N6%10000m1013hPa88%
19-Jun-2024 12:00Light Rain25°C11 mph, NW6%10000m1013hPa86%
19-Jun-2024 15:00Clear Sky25°C11 mph, NW1%10000m1011hPa86%
19-Jun-2024 18:00Light Rain25°C11 mph, NW7%10000m1012hPa87%
19-Jun-2024 21:00Light Rain25°C11 mph, W4%10000m1013hPa85%
20-Jun-2024 00:00Light Rain25°C11 mph, W4%10000m1012hPa84%
20-Jun-2024 03:00Light Rain25°C16 mph, W12%10000m1010hPa86%
20-Jun-2024 06:00Light Rain24°C18 mph, SW21%10000m1012hPa84%
20-Jun-2024 09:00Overcast Clouds24°C18 mph, SW86%10000m1013hPa78%
20-Jun-2024 12:00Overcast Clouds24°C18 mph, SW87%10000m1013hPa73%
20-Jun-2024 15:00Scattered Clouds23°C18 mph, SW48%10000m1013hPa68%
20-Jun-2024 18:00Scattered Clouds23°C18 mph, SW26%10000m1013hPa65%
20-Jun-2024 21:00Clear Sky23°C18 mph, SW1%10000m1015hPa63%